Showing default

NIMBUS 4, 4362

Orbit data source: Space-Track

NIMBUS 4, 4362 is a payload satellite owned by GSFC (US) in SSO that was launched on Wed, 08 Apr 1970 UTC via a THORAD SLV-2G AGENA D launch vehicle from the Air Force Western Test Range (AFWTR). Payload-class satellites include a variety of spacecraft equipped with specific instruments for various scientific and technological missions. These include communications satellites like Starlink; space stations such as the ISS; scientific satellites like the Hubble; Earth observation satellites from companies like Planet Labs, Umbra, and HawkEye 360; GPS; miniature CubeSats for education and research; and military/defense satellites.

Loading next visibility...
Identifier
4362, 1970-025A
Orbit
SSO
Country
Flag of USUS
Related business
Manufacturer
GE/MSVD
Mission
Non-operational spacecraft
Bus & Motor
NIMBUS, Unknown motor
Mass
619 kg wet, 619 kg dry
Launch date (UTC)
1970-04-08 (56 years ago)
Launch vehicle
THORAD SLV-2G AGENA D
Launch site
Air Force Western Test Range (AFWTR)
Object type
Payload
Rocket body
Debris
Shape & HBR
CONE + 2 PAN, 1.1 m
Radar Cross Section
Large (>1 m²)

Expand to show TLE details & history
Last TLE update: 10 hours ago

TLE from 10 hours ago
0 NIMBUS 4
1 04362U 70025A   26256.27099247 -.00000023  00000-0  37543-4 0  9992
2 04362  99.9566 176.5127 0007855 138.2165  14.6336 13.44758838768680
Epoch: 2026-09-13T06:30Z
TLE epoch observation values (Epoch: 2026-09-13T06:30:13.749Z)
Latitude
26.72272°
Longitude
-88.26842°
Altitude
1,089.056 km
Speed
7.313 km/s
True Right ascension
00h 06m 13s
True Declination
26° 35' 28"
Sunlit
Object was in full shadow at epoch
Visualization orbit readout
Latitude
Unknown
Longitude
Unknown
Altitude
Unknown
Speed
Unknown
Apparent Right ascension
Unknown
Apparent Declination
Unknown
Sunlit
N/A
Visualization observer readout
Local Sidereal Time
09:29:07
Azimuth
Unknown
Elevation
Unknown
Doppler factor
Unknown
Orbital elements
Apogee altitude
1,094.792 km
Perigee altitude
1,083.061 km
Semi-major axis
7,467.063 km
Eccentricity
0.00079
Inclination
99.9566°
RAAN
176.5127°
Arg. of periapsis
138.2165°
True anomaly
14.65636°
Mean anomaly
14.6336°
Eccentric anomaly
14.64498°
Mean motion
3.36371 °/min
Orbital period
107.02 mins
BSTAR
0.000037543

Documentation

Showing up to 5 results
|